Location: Burgerwiesen
(48.6500°N, 15.6167°E)
Time: 09:28:52
(UTC+00:00)

Cosmos 1140 Rocket - Pass Details

Date: 09 April 2020
Orbit: 745 x 767 km, 74.1° (Epoch: 25 May)

Event Time Altitude Azimuth Distance (km) Brightness Sun altitude
Rises 18:24:11 0° 183° (S) 3,201 6.5 -7.7°
Reaches altitude 10° 18:26:36 10° 177° (S) 2,277 5.7 -8.1°
Maximum altitude 18:31:31 47° 105° (ESE) 1,000 3.7 -8.8°
Drops below altitude 10° 18:36:27 10° 33° (NNE) 2,280 5.9 -9.6°
Sets 18:38:53 0° 28° (NNE) 3,206 6.7 -9.9°
